Location: Brachbach
(49.1847°N, 9.7240°E)
Time: 20:08:49
(UTC+00:00)

Cosmos 2219 Rocket - Pass Details

Date: 17 August 2024
Orbit: 826 x 846 km, 71.0° (Epoch: 09 September)

Event Time Altitude Azimuth Distance (km) Brightness Sun altitude
Exits shadow 01:39:01 11° 280° (W) 2,410 4.3 -20.9°
Maximum altitude 01:42:44 19° 323° (NW) 1,916 4.2 -20.5°
Drops below altitude 10° 01:46:43 10° 7° (N) 2,481 5.5 -20.2°
Sets 01:49:56 0° 25° (NNE) 3,419 6.8 -19.8°
